Weather History for Litchfield, MN

Change the Weather History Date:

Sunday, January 12, 2014

  Actual Average Record
Temperature  
Mean Temperature 32 °F -  
Max Temperature 42 °F 19 °F 50 °F (1987)
Min Temperature 21 °F 1 °F -31 °F (1977)
Degree Days  
Heating Degree Days 34    
Moisture  
Dew Point 30 °F    
Average Humidity 83    
Maximum Humidity 100    
Minimum Humidity 70    
Precipitation  
Precipitation 0.00 in - - ()
Sea Level Pressure  
Sea Level Pressure 29.42 in    
Wind  
Wind Speed 5 mph (SW)    
Max Wind Speed 10 mph    
Max Gust Speed 17 mph    
Visibility 10 miles    
Events      
Averages and records for this station are not official NWS values.
T = Trace of Precipitation, MM = Missing Value Source: NWS Daily Summary

Daily Weather History Graph

Daily Weather History Graph

Search for Another Location

Airport:

Trip Planner

Search our weather history database for the weather conditions in past years. The results will help you decide how hot, cold, wet, or windy it might be!

Date:

Astronomy

Jan. 12, 2014 Rise Set
Actual Time 7:54 AM CST 4:58 PM CST
Civil Twilight 7:21 AM CST 5:31 PM CST
Nautical Twilight 6:44 AM CST 6:08 PM CST
Astronomical Twilight 6:09 AM CST 6:43 PM CST
Moon 2:28 PM CST (1/12) 4:52 AM CST (1/12)
Length of Visible Light 10h 10m
Length of Day
9h 04m
Waxing Gibbous, 90% of the Moon is Illuminated
Jan 12
Waxing Gibbous
Jan 15
Full
Jan 23
Last Quarter
Jan 30
New
Feb 6
First Quarter

Hourly Weather History & Observations

Time (CST) Temp. Windchill Dew Point Humidity Pressure Visibility Wind Dir Wind Speed Gust Speed Precip Events Conditions
12:13 AM 21.2 °F - 21.2 °F 100% 29.56 in 10.0 mi Calm Calm - N/A   Unknown
12:33 AM 21.2 °F - 21.2 °F 100% 29.55 in 10.0 mi Calm Calm - N/A   Unknown
12:52 AM 24.8 °F 17.9 °F 23.0 °F 93% 29.54 in 10.0 mi SSE 5.8 mph - N/A   Clear
1:13 AM 24.8 °F 16.9 °F 23.0 °F 93% 29.52 in 10.0 mi SSE 6.9 mph - N/A   Scattered Clouds
1:33 AM 24.8 °F 17.9 °F 23.0 °F 93% 29.51 in 10.0 mi SSE 5.8 mph - N/A   Mostly Cloudy
1:52 AM 24.8 °F 16.9 °F 24.8 °F 100% 29.50 in 10.0 mi SSE 6.9 mph - N/A   Mostly Cloudy
2:13 AM 26.6 °F 19.1 °F 24.8 °F 93% 29.49 in 10.0 mi SSE 6.9 mph - N/A   Scattered Clouds
2:33 AM 26.6 °F 19.1 °F 24.8 °F 93% 29.48 in 10.0 mi SSE 6.9 mph - N/A   Clear
2:52 AM 26.6 °F 17.5 °F 24.8 °F 93% 29.46 in 10.0 mi SSE 9.2 mph - N/A   Clear
3:13 AM 28.4 °F 19.7 °F 24.8 °F 86% 29.43 in 10.0 mi SSE 9.2 mph 17.3 mph N/A   Clear
3:33 AM 28.4 °F 19.1 °F 24.8 °F 86% 29.41 in 10.0 mi SE 10.4 mph 16.1 mph N/A   Clear
3:52 AM 30.2 °F 22.6 °F 24.8 °F 80% 29.38 in 10.0 mi SSE 8.1 mph - N/A   Clear
4:13 AM 33.8 °F 26.4 °F 26.6 °F 75% 29.37 in 10.0 mi SSE 9.2 mph 17.3 mph N/A   Clear
4:32 AM 33.8 °F 27.7 °F 26.6 °F 75% 29.37 in 10.0 mi SSE 6.9 mph - N/A   Clear
4:53 AM 33.8 °F 27.0 °F 26.6 °F 75% 29.36 in 10.0 mi SSE 8.1 mph - N/A   Scattered Clouds
5:13 AM 33.8 °F 28.6 °F 26.6 °F 75% 29.35 in 10.0 mi SSE 5.8 mph - N/A   Scattered Clouds
5:32 AM 33.8 °F 27.7 °F 26.6 °F 75% 29.35 in 10.0 mi SSE 6.9 mph - N/A   Scattered Clouds
5:53 AM 33.8 °F 28.6 °F 28.4 °F 81% 29.34 in 10.0 mi SSE 5.8 mph - N/A   Scattered Clouds
6:12 AM 32.0 °F 26.4 °F 28.4 °F 87% 29.34 in 10.0 mi SSE 5.8 mph - N/A   Scattered Clouds
6:33 AM 30.2 °F - 28.4 °F 93% 29.34 in 10.0 mi Calm Calm - N/A   Unknown
6:53 AM 30.2 °F 26.7 °F 26.6 °F 86% 29.33 in 10.0 mi SSE 3.5 mph - N/A   Clear
7:12 AM 30.2 °F - 26.6 °F 86% 29.33 in 10.0 mi Calm Calm - N/A   Clear
7:33 AM 30.2 °F 23.4 °F 28.4 °F 93% 29.30 in 10.0 mi SE 6.9 mph - N/A   Clear
7:53 AM 30.2 °F - 28.4 °F 93% 29.31 in 10.0 mi Calm Calm - N/A   Clear
8:12 AM 30.2 °F - 28.4 °F 93% 29.32 in 10.0 mi Calm Calm - N/A   Clear
8:33 AM 32.0 °F 27.5 °F 28.4 °F 87% 29.32 in 10.0 mi South 4.6 mph - N/A   Clear
8:53 AM 32.0 °F 28.7 °F 28.4 °F 87% 29.34 in 10.0 mi SW 3.5 mph - N/A   Clear
9:12 AM 32.0 °F 26.4 °F 28.4 °F 87% 29.35 in 10.0 mi SW 5.8 mph - N/A   Unknown
9:33 AM 33.8 °F 28.6 °F 28.4 °F 81% 29.36 in 10.0 mi SSW 5.8 mph - N/A   Overcast
9:53 AM 33.8 °F 28.6 °F 28.4 °F 81% 29.36 in 10.0 mi SW 5.8 mph - N/A   Unknown
10:12 AM 33.8 °F - 28.4 °F 81% 29.35 in 10.0 mi Calm Calm - N/A   Overcast
10:33 AM 35.6 °F 30.7 °F 30.2 °F 81% 29.36 in 10.0 mi WSW 5.8 mph - N/A   Mostly Cloudy
10:53 AM 35.6 °F 30.7 °F 30.2 °F 81% 29.37 in 10.0 mi West 5.8 mph - N/A   Overcast
11:12 AM 35.6 °F 29.9 °F 30.2 °F 81% 29.36 in 10.0 mi West 6.9 mph - N/A   Mostly Cloudy
11:33 AM 37.4 °F 32.1 °F 30.2 °F 75% 29.36 in 10.0 mi West 6.9 mph - N/A   Scattered Clouds
11:53 AM 39.2 °F 35.9 °F 32.0 °F 75% 29.35 in 10.0 mi West 4.6 mph - N/A   Scattered Clouds
12:12 PM 39.2 °F 35.0 °F 32.0 °F 75% 29.35 in 10.0 mi West 5.8 mph - N/A   Scattered Clouds
12:33 PM 39.2 °F 35.0 °F 33.8 °F 81% 29.36 in 10.0 mi West 5.8 mph - N/A   Clear
12:53 PM 41.0 °F 37.1 °F 33.8 °F 76% 29.35 in 10.0 mi WSW 5.8 mph - N/A   Clear
1:13 PM 42.8 °F 38.0 °F 33.8 °F 70% 29.37 in 10.0 mi West 8.1 mph - N/A   Unknown
1:33 PM 41.0 °F 37.1 °F 33.8 °F 76% 29.37 in 10.0 mi WSW 5.8 mph - N/A   Unknown
1:53 PM 41.0 °F 39.0 °F 33.8 °F 76% 29.37 in 10.0 mi West 3.5 mph - N/A   Clear
2:13 PM 41.0 °F 39.0 °F 33.8 °F 76% 29.38 in 10.0 mi West 3.5 mph - N/A   Unknown
2:33 PM 41.0 °F 37.1 °F 33.8 °F 76% 29.38 in 10.0 mi West 5.8 mph - N/A   Clear
2:52 PM 41.0 °F 38.0 °F 33.8 °F 76% 29.39 in 10.0 mi West 4.6 mph - N/A   Clear
3:13 PM 41.0 °F 38.0 °F 33.8 °F 76% 29.40 in 10.0 mi WSW 4.6 mph - N/A   Clear
3:32 PM 39.2 °F 37.0 °F 33.8 °F 81% 29.41 in 10.0 mi SW 3.5 mph - N/A   Unknown
3:53 PM 39.2 °F 35.9 °F 33.8 °F 81% 29.43 in 10.0 mi WSW 4.6 mph - N/A   Clear
4:12 PM 39.2 °F 35.9 °F 33.8 °F 81% 29.44 in 10.0 mi WSW 4.6 mph - N/A   Clear
4:33 PM 37.4 °F 33.8 °F 33.8 °F 87% 29.45 in 10.0 mi WSW 4.6 mph - N/A   Unknown
4:53 PM 37.4 °F 34.9 °F 33.8 °F 87% 29.45 in 10.0 mi WSW 3.5 mph - N/A   Clear
5:12 PM 37.4 °F 34.9 °F 33.8 °F 87% 29.46 in 10.0 mi WSW 3.5 mph - N/A   Clear
5:33 PM 37.4 °F 32.8 °F 33.8 °F 87% 29.45 in 10.0 mi West 5.8 mph - N/A   Clear
5:53 PM 37.4 °F 32.8 °F 32.0 °F 81% 29.46 in 10.0 mi West 5.8 mph - N/A   Clear
6:12 PM 37.4 °F 31.4 °F 32.0 °F 81% 29.47 in 10.0 mi West 8.1 mph - N/A   Clear
6:33 PM 39.2 °F 33.0 °F 32.0 °F 75% 29.47 in 10.0 mi West 9.2 mph - N/A   Clear
6:53 PM 39.2 °F 32.5 °F 32.0 °F 75% 29.47 in 10.0 mi West 10.4 mph 16.1 mph N/A   Clear
7:12 PM 37.4 °F 32.1 °F 32.0 °F 81% 29.47 in 10.0 mi West 6.9 mph - N/A   Clear
7:33 PM 37.4 °F 33.8 °F 32.0 °F 81% 29.48 in 10.0 mi West 4.6 mph - N/A   Clear
7:53 PM 37.4 °F 33.8 °F 32.0 °F 81% 29.50 in 10.0 mi West 4.6 mph - N/A   Clear
8:12 PM 37.4 °F 32.8 °F 32.0 °F 81% 29.50 in 10.0 mi West 5.8 mph - N/A   Clear
8:33 PM 35.6 °F 31.7 °F 32.0 °F 87% 29.50 in 10.0 mi West 4.6 mph - N/A   Clear
8:53 PM 35.6 °F 30.7 °F 32.0 °F 87% 29.50 in 10.0 mi WSW 5.8 mph - N/A   Clear
9:12 PM 35.6 °F 30.7 °F 32.0 °F 87% 29.50 in 10.0 mi WSW 5.8 mph - N/A   Clear
9:33 PM 35.6 °F 29.9 °F 32.0 °F 87% 29.51 in 10.0 mi WSW 6.9 mph - N/A   Clear
9:53 PM 35.6 °F 31.7 °F 32.0 °F 87% 29.50 in 10.0 mi WSW 4.6 mph - N/A   Clear
10:12 PM 35.6 °F 29.9 °F 30.2 °F 81% 29.49 in 10.0 mi WSW 6.9 mph - N/A   Clear
10:33 PM 35.6 °F 28.6 °F 30.2 °F 81% 29.51 in 10.0 mi WNW 9.2 mph - N/A   Clear
10:53 PM 35.6 °F 28.6 °F 30.2 °F 81% 29.51 in 10.0 mi WNW 9.2 mph - N/A   Clear
11:12 PM 35.6 °F 29.2 °F 30.2 °F 81% 29.51 in 10.0 mi WNW 8.1 mph - N/A   Clear
11:33 PM 35.6 °F 29.2 °F 30.2 °F 81% 29.51 in 10.0 mi WNW 8.1 mph - N/A   Clear
11:53 PM 35.6 °F 29.9 °F 30.2 °F 81% 29.50 in 10.0 mi West 6.9 mph - N/A   Clear